Printer-friendly version

IAU Minor Planet Center

Minor Planet Center

MPEC 2001-M17: 2001 LO7

The following Minor Planet Electronic Circular may be linked-to from your own Web pages, but must not otherwise be redistributed electronically.


Read MPEC 2001-M16 Read MPEC 2001-M18


M.P.E.C. 2001-M17                                Issued 2001 June 20, 16:58 UT

     The Minor Planet Electronic Circulars contain information on unusual
         minor planets and routine data on comets.  They are published
   on behalf of Commission 20 of the International Astronomical Union by the
          Minor Planet Center, Smithsonian Astrophysical Observatory,
                          Cambridge, MA 02138, U.S.A.

             Prepared using the Tamkin Foundation Computer Network

                              MPC@CFA.HARVARD.EDU
          URL http://cfa-www.harvard.edu/iau/mpc.html  ISSN 1523-6714

                                   2001 LO7

Observations:
     K01L07O* C2001 06 15.22781 16 31 48.62 -10 32 57.3          19.4        704
     K01L07O  C2001 06 15.23962 16 31 47.59 -10 32 53.9          19.1        704
     K01L07O  C2001 06 15.25134 16 31 46.71 -10 32 50.5          19.5        704
     K01L07O  C2001 06 15.88780 16 30 56.51 -10 29 45.6                      046
     K01L07O  C2001 06 15.89727 16 30 55.75 -10 29 42.2                      046
     K01L07O  C2001 06 15.90160 16 30 55.33 -10 29 40.7          18.1 R      046
     K01L07O  C2001 06 15.90574 16 30 55.04 -10 29 39.9                      046
     K01L07O  C2001 06 15.93534 16 30 52.74 -10 29 31.7                      557
     K01L07O  C2001 06 15.93808 16 30 52.50 -10 29 30.6                      557
     K01L07O  C2001 06 15.94027 16 30 52.27 -10 29 29.9                      557
     K01L07O  C2001 06 15.94463 16 30 51.99 -10 29 28.7                      557
     K01L07O  C2001 06 15.94876 16 30 51.64 -10 29 27.2                      557
     K01L07O  C2001 06 15.95287 16 30 51.31 -10 29 26.1                      557
     K01L07O  C2001 06 16.59694 16 30 00.60 -10 26 14.3          19.7 R      428
     K01L07O  C2001 06 16.60337 16 30 00.17 -10 26 13.5          19.6 R      428
     K01L07O  C2001 06 17.20337 16 29 13.26 -10 23 27.1          18.9 R      918
     K01L07O  C2001 06 17.20845 16 29 12.99 -10 23 24.8                      918
     K01L07O  C2001 06 17.21354 16 29 12.48 -10 23 24.0                      918
     K01L07O FC2001 06 18.43051 16 27 37.92 -10 17 35.3          19.8        422
     K01L07O FC2001 06 18.43413 16 27 37.62 -10 17 34.9          19.4        422
     K01L07O FC2001 06 18.43513 16 27 37.57 -10 17 34.6          19.8        422
     K01L07O FC2001 06 18.43685 16 27 37.36 -10 17 33.8          19.9        422
     K01L07O  C2001 06 18.93387 16 26 58.90 -10 15 20.1          19.5 V      493
     K01L07O  C2001 06 18.93593 16 26 58.73 -10 15 19.6                      493
     K01L07O 1C2001 06 19.29446 16 26 31.10 -10 13 41.2                      658
     K01L07O 1C2001 06 19.29668 16 26 30.90 -10 13 39.9                      658
     K01L07O 1C2001 06 19.29916 16 26 30.66 -10 13 39.5                      658
     K01L07O 1C2001 06 19.30358 16 26 30.35 -10 13 37.8                      658
     K01L07O  C2001 06 19.94267 16 25 41.35 -10 10 43.5          19.4 V      493
     K01L07O  C2001 06 20.01006 16 25 35.97 -10 10 24.8                      595
     K01L07O  C2001 06 20.01708 16 25 35.60 -10 10 22.7                      595
     K01L07O  C2001 06 20.02348 16 25 35.22 -10 10 20.6          18.8 V      595

Observer details:
046 Klet.  Observers M. Kocer, M. Kocerova.  0.57-m f/5.2 reflector + CCD.
422 Loomberah.  Observer G. J. Garradd.  0.45-m f/5.4 reflector + CCD.
428 Reedy Creek.  Observer J. Broughton.  0.25-m f/6.3 Schmidt-Cassegrain
    + CCD.
493 Calar Alto.  Observers DANEOPS Team (M. Busch, A. Seib, F. Hormuth).
    Measurers R. Stoss, A. Gnadig, A. Doppler.  1.52-m reflector + CCD.
557 Ondrejov.  Observers P. Kusnirak, L. Sarounova.  0.65-m f/3.6
    reflector + CCD.
595 Farra d'Isonzo.  Observers E. Pettarin, L. Valent.  0.40-m f/4.5
    reflector + CCD.
658 National Research Council of Canada.  Observer D. D. Balam.  1.82-m
    Plaskett reflector + CCD.
704 Lincoln Laboratory ETS, New Mexico.  Observers M. Blythe, F. Shelly,
    M. Bezpalko, R. Huber, L. Manguso, S. Adams.  Measurers J. Stuart,
    R. Sayer, J. B. Evans, H. Viggh.  1.0-m f/2.15 reflector + CCD.
918 Badlands Observatory, Quinn.  Observer R. Dyvig.  0.66-m f/4.8 reflector
    + CCD.

Orbital elements:
2001 LO7
Epoch 2001 May 31.0 TT = JDT 2452060.5                  Spahr
M 261.97161              (2000.0)            P               Q
n   0.32032914     Peri.  181.73711     +0.47140817     -0.74467022
a   2.1154613      Node   240.41164     +0.81555181     +0.57198513
e   0.8820639      Incl.   32.91111     +0.33563311     -0.34394663
P   3.08           H   14.2           G   0.15
From 32 observations 2001 June 15-20.

Ephemeris:
2001 LO7                 a,e,i = 2.12, 0.88, 33                  q = 0.2495
Date    TT    R. A. (2000) Decl.     Delta      r     Elong.  Phase     V
2001 06 10    16 38.77   -10 59.4    2.377    3.370   165.5     4.3    19.1
2001 06 20    16 25.62   -10 10.4    2.371    3.320   155.0     7.4    19.2
2001 06 30    16 13.57   -09 29.7    2.396    3.268   143.3    10.7    19.3
2001 07 10    16 03.34   -08 59.3    2.447    3.214   131.7    13.7    19.5
2001 07 20    15 55.39   -08 39.9    2.518    3.157   120.5    16.1    19.6
2001 07 30    15 49.94   -08 31.6    2.602    3.098   109.9    17.9    19.7
2001 08 09    15 46.98   -08 33.2    2.695    3.036    99.8    19.2    19.7
2001 08 19    15 46.41   -08 43.1    2.789    2.972    90.3    19.9    19.8
2001 08 29    15 48.06   -08 59.9    2.881    2.904    81.3    20.1    19.8
2001 09 08    15 51.71   -09 21.6    2.965    2.834    72.7    19.8    19.8

Timothy B. Spahr             (C) Copyright 2001 MPC           M.P.E.C. 2001-M17

Read MPEC 2001-M16 Read MPEC 2001-M18


Our Web policy. Index to the CBAT/MPC/ICQ pages.


Valid HTML 4.01!